This demonstration page uses our WeatherBlox Daily Observations layout. Learn more.

Left ArrowRight Arrow

Hourly Observations for August 1, 2018

Temp ( °F °C ) Dew Point ( °F °C ) Humidity (%) Winds ( mph kmh ) Pressure ( in mb ) Visibility ( mi km ) Precip ( " mm )
12:59 am 00:59 Mostly Cloudy 79 26.1 74 23.3 85 85 SSW 10 17 30.07 1018 10 16 0.00 0.00
1:59 am 01:59 Mostly Cloudy 79 26.1 74 23.3 85 85 SSW 13 20 30.06 1018 10 16 0.00 0.00
2:28 am 02:28 Mostly Cloudy 78 25.6 74 23.3 87 87 SSW 9 15 30.06 1018 10 16 0.00 0.00
2:59 am 02:59 Mostly Cloudy 78 25.6 74 23.3 87 87 SSW 13 20 30.07 1018 10 16 0.00 0.00
3:59 am 03:59 Mostly Cloudy 79 26.1 74 23.3 85 85 SSW 12 19 30.07 1018 10 16 0.00 0.00
4:22 am 04:22 Mostly Cloudy 79 26.1 74 23.3 85 85 SW 13 20 30.09 1019 10 16 0.00 0.00
4:44 am 04:44 Mostly Cloudy 79 26.1 74 23.3 85 85 SW 10 17 30.06 1018 10 16 0.00 0.00
4:59 am 04:59 Mostly Cloudy 79 26.1 74 23.3 85 85 SW 13 20 30.08 1019 10 16 0.00 0.00
5:59 am 05:59 Mostly Cloudy 78 25.6 73 22.8 85 85 SSW 8 13 30.09 1019 10 16 0.00 0.00
6:59 am 06:59 Mostly Cloudy 78 25.6 73 22.8 85 85 SSW 8 13 30.10 1019 9 14 0.00 0.00
7:17 am 07:17 Partly Cloudy 79 26.1 73 22.8 82 82 SSW 10 17 30.09 1019 9 14 0.00 0.00
7:59 am 07:59 Partly Cloudy 80 26.7 74 23.3 82 82 SSW 9 15 30.11 1020 9 14 0.00 0.00
8:43 am 08:43 Mostly Cloudy 80 26.7 73 22.8 79 79 SSW 12 19 30.12 1020 9 14 0.00 0.00
8:59 am 08:59 Mostly Cloudy 81 27.2 74 23.3 79 79 SW 10 17 30.12 1020 9 14 0.00 0.00
9:27 am 09:27 Partly Cloudy 82 27.8 73 22.8 74 74 SW 13 20 30.12 1020 10 16 0.00 0.00
9:59 am 09:59 Partly Cloudy 84 28.9 73 22.8 70 70 SSW 12 19 30.12 1020 10 16 0.00 0.00
10:59 am 10:59 Partly Cloudy 85 29.4 72 22.2 65 65 SW 14 22 30.13 1020 10 16 0.00 0.00
11:59 am 11:59 Partly Cloudy 88 31.1 71 21.7 57 57 SW 15 24 30.12 1020 10 16 0.00 0.00
12:59 pm 12:59 Partly Cloudy 88 31.1 72 22.2 59 59 SSW 10 17 30.11 1020 10 16 0.00 0.00
1:59 pm 13:59 Partly Cloudy 88 31.1 72 22.2 59 59 SW 9 15 30.09 1019 10 16 0.00 0.00
2:59 pm 14:59 Mostly Cloudy 85 29.4 72 22.2 65 65 SSW 9 15 30.09 1019 10 16 0.00 0.00
3:59 pm 15:59 Partly Cloudy 86 30 75 23.9 70 70 SSE 9 15 30.08 1019 10 16 0.00 0.00
4:59 pm 16:59 Mostly Cloudy with Light Rain 83 28.3 74 23.3 74 74 S 10 17 30.09 1019 6 10 0.00 0.03
5:59 pm 17:59 Mostly Cloudy 85 29.4 73 22.8 68 68 SW 15 24 30.10 1019 10 16 0.00 0.03
6:09 pm 18:09 Mostly Cloudy with Thunderstorms 83 28.3 73 22.8 72 72 S 12 19 30.09 1019 10 16 0.00 0.00
6:45 pm 18:45 Mostly Cloudy 81 27.2 72 22.2 74 74 S 6 9 30.09 1019 10 16 0.00 0.00
6:59 pm 18:59 Mostly Cloudy 81 27.2 72 22.2 74 74 S 7 11 30.09 1019 10 16 0.00 0.00
7:59 pm 19:59 Mostly Cloudy 81 27.2 73 22.8 77 77 S 8 13 30.10 1019 10 16 0.00 0.00
8:59 pm 20:59 Mostly Cloudy 80 26.7 73 22.8 79 79 SSW 5 7 30.11 1020 10 16 0.00 0.00
9:59 pm 21:59 Mostly Cloudy 80 26.7 74 23.3 82 82 S 7 11 30.13 1020 10 16 0.00 0.00
10:59 pm 22:59 Mostly Cloudy 80 26.7 74 23.3 82 82 S 8 13 30.13 1020 10 16 0.00 0.00
11:59 pm 23:59 Mostly Cloudy 80 26.7 74 23.3 82 82 SSW 12 19 30.14 1021 10 16 0.00 0.00

Powered by AerisWeather